TimeEST,TemperatureF,Dew PointF,Humidity,Sea Level PressureIn,VisibilityMPH,Wind Direction,Wind SpeedMPH,Gust SpeedMPH,PrecipitationIn,Events,Conditions,WindDirDegrees,DateUTC
12:15 AM,53.2,47.1,80,30.15,10.0,Calm,Calm,-,N/A,,Overcast,0,2013-12-21 05:15:00
12:35 AM,52.9,47.1,81,30.15,10.0,Calm,Calm,-,N/A,,Overcast,0,2013-12-21 05:35:00
12:55 AM,52.9,46.9,80,30.14,10.0,Calm,Calm,-,N/A,,Overcast,0,2013-12-21 05:55:00
1:15 AM,53.4,46.8,78,30.14,10.0,Calm,Calm,-,N/A,,Overcast,0,2013-12-21 06:15:00
1:35 AM,53.6,46.8,78,30.13,10.0,NNE,3.5,-,N/A,,Overcast,20,2013-12-21 06:35:00
1:55 AM,53.6,46.9,78,30.13,10.0,Calm,Calm,-,N/A,,Overcast,0,2013-12-21 06:55:00
2:15 AM,53.6,47.7,80,30.13,10.0,Calm,Calm,-,N/A,,Overcast,0,2013-12-21 07:15:00
2:35 AM,54.3,47.5,78,30.12,10.0,North,3.5,-,N/A,,Overcast,350,2013-12-21 07:35:00
2:55 AM,54.0,48.2,81,30.13,10.0,Calm,Calm,-,N/A,,Overcast,0,2013-12-21 07:55:00
3:15 AM,53.8,48.4,82,30.13,10.0,Calm,Calm,-,N/A,,Overcast,0,2013-12-21 08:15:00
3:35 AM,54.0,48.2,81,30.13,10.0,Calm,Calm,-,N/A,,Overcast,0,2013-12-21 08:35:00
3:55 AM,53.8,47.8,80,30.12,10.0,Calm,Calm,-,N/A,,Overcast,0,2013-12-21 08:55:00
4:15 AM,54.0,47.7,79,30.12,10.0,Calm,Calm,-,N/A,,Overcast,0,2013-12-21 09:15:00
4:35 AM,53.8,48.0,81,30.11,10.0,East,3.5,-,N/A,,Overcast,90,2013-12-21 09:35:00
4:55 AM,54.1,48.2,80,30.12,10.0,NNE,3.5,-,N/A,,Overcast,20,2013-12-21 09:55:00
5:15 AM,53.8,48.2,81,30.11,10.0,Calm,Calm,-,N/A,,Overcast,0,2013-12-21 10:15:00
5:35 AM,53.8,48.2,81,30.11,10.0,NE,3.5,-,N/A,,Overcast,50,2013-12-21 10:35:00
5:55 AM,54.5,48.7,81,30.11,10.0,Calm,Calm,-,N/A,,Overcast,0,2013-12-21 10:55:00
6:15 AM,54.5,49.1,82,30.11,10.0,Calm,Calm,-,N/A,,Overcast,0,2013-12-21 11:15:00
6:35 AM,54.5,48.7,81,30.10,10.0,Calm,Calm,-,N/A,,Overcast,0,2013-12-21 11:35:00
6:55 AM,54.7,49.3,82,30.11,10.0,Calm,Calm,-,N/A,,Overcast,0,2013-12-21 11:55:00
7:15 AM,54.5,49.6,84,30.10,10.0,Calm,Calm,-,N/A,,Overcast,0,2013-12-21 12:15:00
7:35 AM,54.5,50.0,85,30.11,10.0,Calm,Calm,-,N/A,,Overcast,0,2013-12-21 12:35:00
7:55 AM,54.9,50.0,84,30.11,10.0,Calm,Calm,-,N/A,,Overcast,0,2013-12-21 12:55:00
8:15 AM,54.9,50.2,84,30.10,10.0,Calm,Calm,-,N/A,,Overcast,0,2013-12-21 13:15:00
8:35 AM,54.7,50.4,85,30.10,10.0,Calm,Calm,-,N/A,Rain,Rain,0,2013-12-21 13:35:00
8:55 AM,54.0,52.0,93,30.11,7.0,Calm,Calm,-,N/A,,Overcast,0,2013-12-21 13:55:00
9:15 AM,54.0,52.2,94,30.11,7.0,Calm,Calm,-,N/A,,Light Drizzle,0,2013-12-21 14:15:00
9:35 AM,54.5,52.7,94,30.12,5.0,NE,3.5,-,N/A,Rain,Rain,40,2013-12-21 14:35:00
9:55 AM,54.9,53.8,96,30.11,5.0,Calm,Calm,-,N/A,Rain,Rain,0,2013-12-21 14:55:00
10:15 AM,55.4,54.1,96,30.11,3.0,Calm,Calm,-,N/A,,Light Drizzle,0,2013-12-21 15:15:00
10:35 AM,55.4,54.5,97,30.11,1.8,Calm,Calm,-,N/A,Rain,Light Rain,0,2013-12-21 15:35:00
10:55 AM,55.0,54.3,97,30.10,1.8,Calm,Calm,-,N/A,,Drizzle,0,2013-12-21 15:55:00
11:15 AM,55.4,54.9,98,30.09,1.8,Calm,Calm,-,N/A,,Light Drizzle,0,2013-12-21 16:15:00
11:35 AM,55.9,55.4,98,30.08,2.0,Calm,Calm,-,N/A,Rain,Light Rain,0,2013-12-21 16:35:00
11:55 AM,56.3,55.8,98,30.07,1.8,Calm,Calm,-,N/A,,Heavy Drizzle,0,2013-12-21 16:55:00
12:15 PM,56.3,55.8,98,30.05,1.2,East,3.5,-,N/A,Rain,Light Rain,80,2013-12-21 17:15:00
12:35 PM,57.0,56.3,97,30.05,1.8,Calm,Calm,-,N/A,Rain,Light Rain,0,2013-12-21 17:35:00
12:55 PM,56.8,56.3,98,30.04,1.2,NNE,3.5,-,N/A,,Drizzle,30,2013-12-21 17:55:00
1:15 PM,57.2,56.5,97,30.03,1.5,Calm,Calm,-,N/A,,Drizzle,0,2013-12-21 18:15:00
1:35 PM,57.4,56.8,98,30.03,2.0,NNE,3.5,-,N/A,Rain,Light Rain,20,2013-12-21 18:35:00
1:55 PM,57.4,57.2,99,30.03,1.8,NNE,3.5,-,N/A,,Overcast,20,2013-12-21 18:55:00
2:15 PM,58.1,57.6,98,30.02,2.0,NNE,3.5,-,N/A,,Overcast,20,2013-12-21 19:15:00
2:35 PM,58.5,58.1,99,30.02,3.0,Calm,Calm,-,N/A,,Overcast,0,2013-12-21 19:35:00
2:55 PM,58.6,58.1,98,30.02,4.0,Calm,Calm,-,N/A,,Overcast,0,2013-12-21 19:55:00
3:15 PM,59.0,58.3,97,30.02,3.0,Calm,Calm,-,N/A,,Overcast,0,2013-12-21 20:15:00
3:35 PM,59.0,58.5,98,30.02,1.8,Calm,Calm,-,N/A,,Drizzle,0,2013-12-21 20:35:00
3:55 PM,59.2,58.6,98,30.03,1.2,Calm,Calm,-,N/A,Rain,Rain,0,2013-12-21 20:55:00
4:15 PM,59.4,59.0,99,30.03,1.2,Calm,Calm,-,N/A,Rain,Rain,0,2013-12-21 21:15:00
4:35 PM,59.4,59.0,99,30.03,1.5,Calm,Calm,-,N/A,Rain,Rain,0,2013-12-21 21:35:00
4:55 PM,59.5,59.2,99,30.03,1.0,Calm,Calm,-,N/A,Rain,Light Rain,0,2013-12-21 21:55:00
5:15 PM,59.5,59.2,99,30.02,0.8,Calm,Calm,-,N/A,,Light Drizzle,0,2013-12-21 22:15:00
5:35 PM,59.2,59.0,99,30.03,1.0,Calm,Calm,-,N/A,,Light Drizzle,0,2013-12-21 22:35:00
5:55 PM,59.2,59.0,99,30.03,0.8,Calm,Calm,-,N/A,,Overcast,0,2013-12-21 22:55:00
6:15 PM,59.2,59.0,99,30.02,0.5,Calm,Calm,-,N/A,Fog,Fog,0,2013-12-21 23:15:00
6:35 PM,59.0,59.0,100,30.02,0.8,Calm,Calm,-,N/A,,Overcast,0,2013-12-21 23:35:00
6:55 PM,59.0,59.0,100,30.02,0.5,NNE,3.5,-,N/A,Fog,Fog,20,2013-12-21 23:55:00
7:15 PM,59.0,59.0,100,30.03,0.5,North,3.5,-,N/A,Fog,Fog,10,2013-12-22 00:15:00
7:35 PM,59.2,59.2,100,30.03,1.5,NNW,3.5,-,N/A,,Overcast,340,2013-12-22 00:35:00
7:55 PM,59.4,59.4,100,30.02,1.5,Calm,Calm,-,N/A,,Overcast,0,2013-12-22 00:55:00
8:15 PM,59.2,59.2,100,30.02,1.2,Calm,Calm,-,N/A,,Overcast,0,2013-12-22 01:15:00
8:35 PM,59.0,59.0,100,30.02,1.0,NNE,3.5,-,N/A,,Overcast,20,2013-12-22 01:35:00
8:55 PM,59.9,59.9,100,30.01,3.0,Calm,Calm,-,N/A,,Overcast,0,2013-12-22 01:55:00
9:15 PM,59.5,59.5,100,30.01,2.5,Calm,Calm,-,N/A,,Overcast,0,2013-12-22 02:15:00
9:35 PM,59.9,59.9,100,30.02,2.5,NNW,3.5,-,N/A,,Overcast,340,2013-12-22 02:35:00
9:55 PM,59.7,59.7,100,30.01,2.0,Calm,Calm,-,N/A,,Overcast,0,2013-12-22 02:55:00
10:15 PM,59.9,59.9,100,30.01,1.5,Calm,Calm,-,N/A,,Overcast,0,2013-12-22 03:15:00
10:35 PM,59.9,59.9,100,30.01,2.0,Calm,Calm,-,N/A,,Overcast,0,2013-12-22 03:35:00
10:55 PM,59.9,59.9,100,30.01,1.5,Calm,Calm,-,N/A,,Overcast,0,2013-12-22 03:55:00
11:15 PM,59.9,59.9,100,30.01,1.2,Calm,Calm,-,N/A,,Overcast,0,2013-12-22 04:15:00
11:35 PM,60.3,60.3,100,30.01,1.8,Calm,Calm,-,N/A,Rain,Light Rain,0,2013-12-22 04:35:00
11:55 PM,60.4,60.4,100,29.99,2.5,Calm,Calm,-,N/A,,Overcast,0,2013-12-22 04:55:00